Tracking 27107 objects as of 21-Mar-2023
HD Live streaming from Space Station
objects crossing your sky now

SL-8 DEB

Track SL-8 DEB now!
10-day predictions


NORAD ID: 21211
Int'l Code: 1991-009BE
Perigee: 1,440.9 km
Apogee: 1,761.9 km
Inclination: 74.1 °
Period: 118.1 minutes
Semi major axis: 7972 km
RCS: 0.0855 m2 (small)
Launch date: February 12, 1991
Source: Commonwealth of Independent States (former USSR) (CIS)
Launch site: PLESETSK MISSILE AND SPACE COMPLEX (PKMTR)

Note: This is SATELLITE DEBRIS
Your satellite tracking list
Your tracking list is empty




NASA's NSSDC Master Catalog

Two Line Element Set (TLE):
1 21211U 91009BE  23079.69265508  .00000219  00000-0  21146-2 0  9996
2 21211  74.0966 309.5950 0201338 122.2019 299.3292 12.19598403422800
Source of the keplerian elements: AFSPC